TimeAST,TemperatureF,Dew PointF,Humidity,Sea Level PressureIn,VisibilityMPH,Wind Direction,Wind SpeedMPH,Gust SpeedMPH,PrecipitationIn,Events,Conditions,WindDirDegrees,DateUTC
12:00 AM,75.2,69.8,83,29.89,6.2,ESE,6.9,-,N/A,,Mostly Cloudy,110,2013-03-02 04:00:00
2:00 AM,76,70,76,29.87,9,Calm,Calm,,,,Haze,,2013-03-02 06:00:00
2:00 AM,75.2,69.8,83,29.86,6.2,Calm,Calm,-,N/A,,Scattered Clouds,0,2013-03-02 06:00:00
3:00 AM,75.2,69.8,83,29.83,6.2,ESE,3.5,-,N/A,,Scattered Clouds,110,2013-03-02 07:00:00
4:00 AM,75.2,69.8,83,29.86,6.2,ESE,6.9,-,N/A,,Scattered Clouds,110,2013-03-02 08:00:00
5:00 AM,73,70,87,29.88,9,Calm,Calm,,,,,,2013-03-02 09:00:00
5:00 AM,73.4,69.8,88,29.86,6.2,Calm,Calm,-,N/A,,Partly Cloudy,0,2013-03-02 09:00:00
6:00 AM,73.4,69.8,88,29.89,6.2,Calm,Calm,-,N/A,,Mostly Cloudy,0,2013-03-02 10:00:00
7:00 AM,75.2,69.8,83,29.92,6.2,Calm,Calm,-,N/A,,Mostly Cloudy,0,2013-03-02 11:00:00
8:00 AM,79,71,69,29.93,11,Calm,Calm,,,,Haze,,2013-03-02 12:00:00
8:00 AM,78.8,71.6,78,29.92,6.2,Calm,Calm,-,N/A,,Mostly Cloudy,0,2013-03-02 12:00:00
9:00 AM,82.4,71.6,70,29.95,6.2,East,13.8,-,N/A,,Mostly Cloudy,100,2013-03-02 13:00:00
10:00 AM,86.0,69.8,58,29.95,6.2,ESE,16.1,-,N/A,,Mostly Cloudy,120,2013-03-02 14:00:00
11:00 AM,88,69,43,29.95,16,ESE,16.1,,,,Haze,120,2013-03-02 15:00:00
11:00 AM,87.8,68.0,52,29.95,6.2,ESE,16.1,-,N/A,,Mostly Cloudy,120,2013-03-02 15:00:00
12:00 PM,87.8,66.2,49,29.92,6.2,ESE,17.3,-,N/A,,Mostly Cloudy,110,2013-03-02 16:00:00
1:00 PM,86.0,69.8,58,29.89,6.2,ESE,12.7,-,N/A,,Scattered Clouds,120,2013-03-02 17:00:00
2:00 PM,87,69,46,29.89,12,ESE,15.0,,,,Smoke,110,2013-03-02 18:00:00
2:00 PM,86.0,69.8,58,29.89,6.2,ESE,15.0,-,N/A,,Scattered Clouds,110,2013-03-02 18:00:00
3:00 PM,87.8,68.0,52,29.86,6.2,ESE,15.0,-,N/A,,Scattered Clouds,120,2013-03-02 19:00:00
4:00 PM,86.0,68.0,55,29.86,6.2,SE,10.4,-,N/A,,Scattered Clouds,130,2013-03-02 20:00:00
5:00 PM,84,69,52,29.87,10,ESE,13.8,,,,Smoke,120,2013-03-02 21:00:00
5:00 PM,84.2,69.8,62,29.86,6.2,ESE,13.8,-,N/A,,Scattered Clouds,120,2013-03-02 21:00:00
6:00 PM,82.4,69.8,66,29.86,6.2,ESE,9.2,-,N/A,,Partly Cloudy,120,2013-03-02 22:00:00
7:00 PM,80.6,69.8,70,29.89,5.0,ESE,8.1,-,N/A,,Partly Cloudy,120,2013-03-02 23:00:00
8:00 PM,78,70,71,29.91,6,Calm,Calm,,,,Smoke,,2013-03-03 00:00:00
8:00 PM,78.8,69.8,74,29.89,6.2,Calm,Calm,-,N/A,,Partly Cloudy,0,2013-03-03 00:00:00
9:00 PM,77.0,71.6,83,29.92,6.2,Calm,Calm,-,N/A,,Partly Cloudy,0,2013-03-03 01:00:00
10:00 PM,77.0,69.8,78,29.95,6.2,East,4.6,-,N/A,,Partly Cloudy,90,2013-03-03 02:00:00
11:00 PM,76,70,77,29.94,5,East,8.1,,,,Smoke,90,2013-03-03 03:00:00
11:00 PM,75.2,69.8,83,29.92,6.2,East,8.1,-,N/A,,Partly Cloudy,90,2013-03-03 03:00:00